When you browse on this site, cookies collect data to enhance your experience and personalize the content and advertising you see.
Visit our Privacy Policy to learn more. By continuing to use the site, you agree to this use of cookies and data.

Stündliche Wetter Ciudad Bolívar

Heute, 13 August, Donnerstag

Zeit Temperatur Niederschläge Wind Luftdruck Luftfeuchtigkeit
00:00 +27°C° 0 mm 4 m/S 751 mmHg 84%
01:00 +27°C° 0 mm 3 m/S 751 mmHg 86%
02:00 +27°C° 0 mm 3 m/S 750 mmHg 88%
03:00 +26°C° 0 mm 3 m/S 750 mmHg 89%
04:00 +26°C° 0 mm 3 m/S 750 mmHg 89%
05:00 +26°C° 0 mm 3 m/S 750 mmHg 90%
06:00 +27°C° 0 mm 3 m/S 751 mmHg 88%
07:00 +27°C° 0 mm 3 m/S 751 mmHg 85%
08:00 +28°C° 0 mm 3 m/S 752 mmHg 82%
09:00 +29°C° 0 mm 3 m/S 752 mmHg 75%
10:00 +31°C° 0 mm 3 m/S 752 mmHg 68%
11:00 +33°C° 0 mm 4 m/S 751 mmHg 62%
12:00 +34°C° 0 mm 3 m/S 751 mmHg 58%
13:00 +35°C° 0 mm 3 m/S 750 mmHg 55%
14:00 +36°C° 0 mm 3 m/S 749 mmHg 52%
15:00 +35°C° 0.1 mm 3 m/S 749 mmHg 55%
16:00 +35°C° 0.1 mm 3 m/S 748 mmHg 59%
17:00 +34°C° 0.1 mm 4 m/S 748 mmHg 63%
18:00 +33°C° 0.2 mm 4 m/S 748 mmHg 69%
19:00 +30°C° 0.2 mm 4 m/S 749 mmHg 75%
20:00 +29°C° 0.2 mm 4 m/S 750 mmHg 81%
21:00 +28°C° 0 mm 4 m/S 750 mmHg 83%
22:00 +28°C° 0 mm 4 m/S 751 mmHg 84%
23:00 +27°C° 0 mm 4 m/S 751 mmHg 86%

Morgen, 14 August, Freitag

Zeit Temperatur Niederschläge Wind Luftdruck Luftfeuchtigkeit
00:00 +27°C° 0 mm 4 m/S 751 mmHg 87%
01:00 +27°C° 0 mm 4 m/S 750 mmHg 89%
02:00 +27°C° 0 mm 3 m/S 750 mmHg 90%
03:00 +26°C° 0 mm 3 m/S 750 mmHg 91%
04:00 +26°C° 0 mm 2 m/S 750 mmHg 92%
05:00 +26°C° 0 mm 2 m/S 750 mmHg 93%
06:00 +27°C° 0 mm 2 m/S 750 mmHg 91%
07:00 +27°C° 0 mm 2 m/S 750 mmHg 88%
08:00 +28°C° 0 mm 3 m/S 751 mmHg 85%
09:00 +30°C° 0 mm 3 m/S 751 mmHg 78%
10:00 +31°C° 0 mm 3 m/S 751 mmHg 71%
11:00 +34°C° 0 mm 3 m/S 751 mmHg 63%
12:00 +34°C° 0.1 mm 3 m/S 750 mmHg 61%
13:00 +35°C° 0.1 mm 3 m/S 749 mmHg 59%
14:00 +36°C° 0.1 mm 3 m/S 749 mmHg 56%
15:00 +35°C° 0.1 mm 3 m/S 748 mmHg 59%
16:00 +35°C° 0.1 mm 3 m/S 748 mmHg 61%
17:00 +34°C° 0.1 mm 3 m/S 748 mmHg 63%
18:00 +33°C° 0 mm 3 m/S 748 mmHg 67%
19:00 +31°C° 0 mm 3 m/S 749 mmHg 71%
20:00 +30°C° 0 mm 3 m/S 749 mmHg 76%
21:00 +29°C° 0 mm 4 m/S 750 mmHg 79%
22:00 +29°C° 0 mm 4 m/S 750 mmHg 81%
23:00 +28°C° 0 mm 4 m/S 751 mmHg 84%

übermorgen, 15 August, Samstag

Zeit Temperatur Niederschläge Wind Luftdruck Luftfeuchtigkeit
00:00 +28°C° 0.1 mm 4 m/S 750 mmHg 86%
01:00 +28°C° 0.1 mm 3 m/S 750 mmHg 87%
02:00 +27°C° 0.1 mm 3 m/S 750 mmHg 88%
03:00 +27°C° 0 mm 3 m/S 750 mmHg 89%
04:00 +27°C° 0 mm 3 m/S 750 mmHg 90%
05:00 +27°C° 0 mm 2 m/S 750 mmHg 91%
06:00 +27°C° 0 mm 3 m/S 750 mmHg 88%
07:00 +28°C° 0 mm 3 m/S 750 mmHg 86%
08:00 +29°C° 0 mm 3 m/S 751 mmHg 83%
09:00 +30°C° 0 mm 3 m/S 751 mmHg 75%
10:00 +33°C° 0 mm 3 m/S 751 mmHg 67%
11:00 +34°C° 0 mm 3 m/S 751 mmHg 60%
12:00 +35°C° 0 mm 3 m/S 750 mmHg 56%
13:00 +36°C° 0 mm 3 m/S 749 mmHg 52%
14:00 +37°C° 0 mm 3 m/S 749 mmHg 48%
15:00 +37°C° 0 mm 3 m/S 748 mmHg 50%
16:00 +37°C° 0 mm 3 m/S 748 mmHg 51%
17:00 +36°C° 0 mm 2 m/S 748 mmHg 52%
18:00 +35°C° 0.2 mm 3 m/S 748 mmHg 57%
19:00 +33°C° 0.2 mm 4 m/S 749 mmHg 63%
20:00 +32°C° 0.2 mm 4 m/S 749 mmHg 68%
21:00 +30°C° 0.4 mm 4 m/S 750 mmHg 72%
22:00 +29°C° 0.4 mm 4 m/S 750 mmHg 77%
23:00 +28°C° 0.4 mm 4 m/S 751 mmHg 82%

16 August, Sonntag

Zeit Temperatur Niederschläge Wind Luftdruck Luftfeuchtigkeit
00:00 +28°C° 0 mm 4 m/S 751 mmHg 84%
01:00 +27°C° 0 mm 3 m/S 750 mmHg 85%
02:00 +27°C° 0 mm 2 m/S 750 mmHg 87%
03:00 +27°C° 0 mm 2 m/S 750 mmHg 88%
04:00 +27°C° 0 mm 2 m/S 750 mmHg 89%
05:00 +26°C° 0 mm 2 m/S 750 mmHg 89%
06:00 +27°C° 0 mm 2 m/S 750 mmHg 86%
07:00 +28°C° 0 mm 3 m/S 751 mmHg 82%
08:00 +28°C° 0 mm 3 m/S 751 mmHg 79%
09:00 +30°C° 0 mm 3 m/S 751 mmHg 72%
10:00 +32°C° 0 mm 4 m/S 751 mmHg 66%
11:00 +34°C° 0 mm 4 m/S 751 mmHg 60%
12:00 +35°C° 0 mm 3 m/S 750 mmHg 57%
13:00 +35°C° 0 mm 3 m/S 750 mmHg 55%
14:00 +36°C° 0 mm 3 m/S 749 mmHg 52%
15:00 +36°C° 0.2 mm 3 m/S 748 mmHg 55%
16:00 +35°C° 0.2 mm 3 m/S 748 mmHg 57%
17:00 +35°C° 0.2 mm 4 m/S 748 mmHg 60%
18:00 +33°C° 0.2 mm 4 m/S 748 mmHg 66%
19:00 +32°C° 0.2 mm 4 m/S 749 mmHg 72%
20:00 +29°C° 0.2 mm 4 m/S 749 mmHg 79%
21:00 +29°C° 0 mm 4 m/S 750 mmHg 79%
22:00 +29°C° 0 mm 4 m/S 750 mmHg 80%
23:00 +28°C° 0 mm 4 m/S 751 mmHg 80%

17 August, Montag

Zeit Temperatur Niederschläge Wind Luftdruck Luftfeuchtigkeit
00:00 +28°C° 0 mm 4 m/S 750 mmHg 82%
01:00 +28°C° 0 mm 4 m/S 750 mmHg 84%
02:00 +27°C° 0 mm 4 m/S 750 mmHg 86%
03:00 +27°C° 0.1 mm 3 m/S 750 mmHg 87%
04:00 +27°C° 0.1 mm 2 m/S 750 mmHg 88%
05:00 +27°C° 0.1 mm 2 m/S 750 mmHg 89%
06:00 +27°C° 0 mm 2 m/S 750 mmHg 87%
07:00 +28°C° 0 mm 3 m/S 751 mmHg 86%
08:00 +28°C° 0 mm 3 m/S 751 mmHg 85%
09:00 +30°C° 0 mm 3 m/S 751 mmHg 77%
10:00 +33°C° 0 mm 3 m/S 751 mmHg 69%
11:00 +34°C° 0 mm 3 m/S 751 mmHg 61%
12:00 +35°C° 0 mm 3 m/S 750 mmHg 58%
13:00 +36°C° 0 mm 2 m/S 749 mmHg 55%
14:00 +36°C° 0 mm 2 m/S 748 mmHg 52%
15:00 +36°C° 0 mm 2 m/S 748 mmHg 53%
16:00 +36°C° 0 mm 2 m/S 748 mmHg 54%
17:00 +35°C° 0 mm 1 m/S 747 mmHg 55%
18:00 +34°C° 0.6 mm 2 m/S 748 mmHg 63%
19:00 +31°C° 0.6 mm 2 m/S 748 mmHg 71%
20:00 +29°C° 0.6 mm 3 m/S 749 mmHg 79%
21:00 +29°C° 0.2 mm 3 m/S 750 mmHg 81%
22:00 +29°C° 0.2 mm 3 m/S 750 mmHg 83%
23:00 +28°C° 0.2 mm 3 m/S 750 mmHg 84%

18 August, Dienstag

Zeit Temperatur Niederschläge Wind Luftdruck Luftfeuchtigkeit
00:00 +28°C° 1.3 mm 3 m/S 750 mmHg 85%
01:00 +28°C° 1.3 mm 3 m/S 750 mmHg 87%
02:00 +27°C° 1.3 mm 3 m/S 749 mmHg 88%
03:00 +27°C° 0.3 mm 3 m/S 749 mmHg 88%
04:00 +27°C° 0.3 mm 2 m/S 749 mmHg 89%
05:00 +27°C° 0.3 mm 2 m/S 749 mmHg 89%
06:00 +27°C° 0 mm 2 m/S 750 mmHg 87%
07:00 +28°C° 0 mm 2 m/S 750 mmHg 85%
08:00 +28°C° 0 mm 2 m/S 751 mmHg 83%
09:00 +30°C° 0.1 mm 2 m/S 751 mmHg 76%
10:00 +31°C° 0.1 mm 3 m/S 751 mmHg 69%
11:00 +34°C° 0.1 mm 3 m/S 751 mmHg 62%
12:00 +35°C° 0.1 mm 3 m/S 750 mmHg 59%
13:00 +36°C° 0.1 mm 2 m/S 749 mmHg 55%
14:00 +36°C° 0.1 mm 2 m/S 748 mmHg 52%
15:00 +36°C° 0 mm 2 m/S 748 mmHg 54%
16:00 +36°C° 0 mm 2 m/S 748 mmHg 55%
17:00 +35°C° 0 mm 2 m/S 747 mmHg 57%
18:00 +33°C° 1.3 mm 3 m/S 748 mmHg 66%
19:00 +30°C° 1.3 mm 3 m/S 749 mmHg 74%
20:00 +28°C° 1.3 mm 4 m/S 749 mmHg 83%
21:00 +28°C° 0.2 mm 3 m/S 750 mmHg 84%
22:00 +28°C° 0.2 mm 2 m/S 750 mmHg 85%
23:00 +28°C° 0.2 mm 1 m/S 751 mmHg 87%
Mehr zeigen